STARLINK-35290

Last updated on Mon Oct 20 2025 00:02:07 GMT+0000 (Coordinated Universal Time)

1 65846U 25221Z 25292.25002315 -.01577796 00000+0 -29022-1 0 9998 2 65846 53.1604 27.7686 0000984 95.7671 271.2965 15.51590488 4431
UTC large
Height (km)
Speed (km/s)
/
Latitude / Longitude
Inclination (degrees)
Orbital Period (minutes)
Azimuth
Elevation
Range (km)
Doppler Factor

Next 0 passes for location: London (51.5072 / 0.1276)

Sorry there are no passes over London.